Location: Bruch
(44.2051°N, 0.4120°E)
Time: 09:19:41
(UTC+00:00)

AQUARIUS - Pass Details

Date: 29 November 2020
Orbit: 651 x 652 km, 98.0° (Epoch: 25 January)

Event Time Altitude Azimuth Distance (km) Brightness Sun altitude
Rises 06:32:06 0° 12° (NNE) 2,984 7.4 -7.2°
Reaches altitude 10° 06:34:20 10° 11° (N) 2,068 6.6 -6.8°
Maximum altitude 06:38:50 80° 286° (WNW) 667 4.1 -6.1°
Drops below altitude 10° 06:43:19 10° 198° (SSW) 2,051 6.8 -5.4°
Sets 06:45:31 0° 198° (SSW) 2,957 7.7 -5.0°
